Theta_e
318 318 318 318 318 318 318 318 318 318 317 317 316 318 317 319 318 317 319 317 327 342 351 347 346 347 346 351 348 347 353 355 354 357 355 352 354 347 347 348 349 348 349 348 348
317 317 317 317 317 317 317 317 318 318 318 317 316 317 317 319 318 319 317 317 332 345 348 343 345 345 349 350 351 352 355 353 349 349 355 352 353 349 348 350 351 352 349 348 348
314 314 314 315 316 316 316 316 318 318 318 317 317 317 317 318 324 325 317 318 340 346 348 344 345 351 354 349 351 351 356 352 351 351 352 352 352 348 348 353 348 352 352 349 348
313 314 314 314 314 315 314 316 317 317 318 317 316 317 316 322 321 333 318 321 344 347 347 345 349 348 353 354 349 353 350 352 350 352 352 352 350 351 349 348 347 348 350 349 348
313 313 313 312 313 313 313 316 317 318 318 317 316 317 317 317 321 328 327 340 346 346 346 347 345 348 350 351 351 349 349 351 351 346 349 350 352 351 349 346 348 349 351 351 349
312 312 312 312 313 313 314 316 317 317 318 317 316 317 321 319 324 332 337 344 347 346 346 343 339 346 346 349 351 350 349 350 350 352 351 352 353 350 349 348 351 351 351 351 351
314 314 314 313 314 314 314 316 317 318 319 318 316 319 318 316 331 334 342 346 344 346 344 344 340 333 334 342 345 348 350 352 352 353 353 351 355 355 349 349 352 351 351 350 351
315 315 315 315 315 315 315 316 319 323 320 317 317 320 320 321 336 341 343 343 345 348 338 338 333 336 334 337 337 348 349 353 349 353 352 350 358 353 348 351 353 351 352 351 351
316 316 316 316 316 315 316 320 323 320 318 317 320 322 323 323 332 336 340 333 346 345 346 341 331 334 333 334 335 342 338 342 346 353 351 353 356 349 348 349 352 352 351 351 351
315 316 317 317 316 316 318 323 323 324 324 326 327 319 321 324 323 331 334 327 326 334 330 328 331 338 335 339 337 332 329 332 336 348 353 354 351 350 347 348 350 351 350 350 350
315 317 318 317 316 316 321 322 322 322 324 325 321 317 321 325 323 322 331 329 331 330 337 333 340 342 338 334 331 329 328 328 330 339 354 355 354 352 349 348 348 349 349 349 349
316 317 319 317 316 318 319 323 322 321 325 321 320 321 321 323 326 319 327 328 330 333 325 326 333 330 326 325 325 325 326 331 342 349 351 354 355 351 351 350 348 347 347 346 346
318 319 320 317 317 319 318 321 320 320 323 322 321 322 323 325 326 323 327 328 330 332 326 333 331 323 325 323 323 323 325 328 338 352 350 354 356 353 351 349 348 347 345 345 345
317 318 320 317 317 316 321 320 320 320 326 326 325 324 324 324 327 324 325 330 329 336 327 330 325 326 324 324 323 324 322 332 350 354 347 349 347 352 353 352 350 348 347 345 344
316 319 321 317 316 319 319 320 319 317 331 326 324 321 322 326 323 324 319 328 334 331 329 328 323 322 324 324 322 325 329 340 352 344 338 347 351 351 350 355 352 349 348 346 345
320 321 320 316 317 318 320 320 317 327 330 326 323 324 326 323 322 322 321 320 325 327 322 326 320 321 324 323 322 321 323 328 335 340 340 338 348 341 353 353 352 349 348 347 347
323 321 319 316 319 319 321 320 327 327 323 322 325 324 325 325 325 325 325 323 324 323 324 322 322 321 321 323 320 322 324 326 330 338 338 338 342 341 339 347 348 351 348 347 347
322 322 322 321 319 319 319 325 329 325 323 320 322 323 325 323 323 321 325 326 320 321 322 324 323 322 320 324 324 323 324 326 330 331 329 336 342 343 341 340 343 345 349 347 346
324 323 324 322 321 320 325 330 328 325 323 323 324 328 328 325 323 321 325 330 324 322 326 324 324 320 319 321 321 323 325 322 327 326 334 338 342 341 344 349 342 345 348 350 348
327 324 322 320 320 318 329 328 330 326 324 321 328 327 331 329 325 324 331 334 336 327 319 324 326 321 322 321 321 322 320 324 325 329 330 342 342 336 348 353 350 348 350 351 350
326 326 322 321 319 328 333 331 328 327 324 328 326 330 329 330 334 335 337 332 333 334 322 320 323 327 327 329 328 330 332 321 323 324 327 327 330 333 342 345 345 349 351 351 351
324 329 324 322 332 326 332 328 323 329 328 332 329 329 332 333 336 338 337 335 331 332 322 321 323 328 334 329 329 331 328 327 333 332 325 327 329 340 346 342 348 346 347 349 350
333 331 326 321 335 332 329 328 328 329 328 332 333 331 331 333 336 332 332 330 329 332 333 327 328 334 333 330 331 339 338 322 321 323 331 330 329 333 348 351 352 353 349 348 349
329 333 332 326 324 328 329 329 330 326 327 327 331 330 332 332 330 333 333 330 328 330 332 327 326 331 333 333 335 340 343 328 326 332 330 330 331 339 351 352 354 356 355 349 349
325 329 326 334 331 326 325 327 329 330 328 329 330 330 333 335 333 332 329 331 330 331 330 330 333 331 330 332 336 341 343 344 343 345 341 334 342 345 351 352 354 357 362 355 351
329 330 327 329 326 328 326 329 330 329 329 331 332 329 329 332 331 332 328 329 332 330 331 328 336 333 337 335 339 341 344 345 346 349 350 348 345 347 348 355 357 360 364 370 370
319 321 326 325 329 330 330 329 329 328 327 329 330 329 330 330 330 330 328 328 325 326 329 329 331 333 337 334 337 338 338 344 346 347 348 348 350 347 350 347 350 351 352 352 355
Wind_Speed
18 18 19 19 19 19 18 19 19 20 19 19 18 16 16 13 9 4 6 5 9 21 19 12 6 6 3 2 2 2 2 2 4 5 5 10 7 6 6 13 4 3 12 14 23
18 19 19 19 20 19 19 20 19 20 20 19 18 16 16 14 4 8 6 6 12 24 17 11 8 7 2 1 1 1 2 5 4 4 6 12 10 9 7 8 9 14 17 22 21
20 20 20 20 20 20 21 21 20 20 19 18 17 14 15 10 2 2 10 11 17 22 13 5 8 2 1 0 2 1 1 3 5 6 3 12 11 6 13 5 10 17 19 19 20
21 21 22 21 22 21 22 21 20 20 18 17 15 12 12 3 4 3 11 13 23 18 14 7 2 1 2 2 1 1 1 3 3 4 5 12 10 7 12 5 13 19 21 20 16
21 21 22 21 22 23 23 20 20 19 17 15 12 9 4 2 2 2 12 21 23 14 11 5 0 1 4 3 2 2 3 5 7 6 5 7 7 5 9 9 15 19 20 19 16
21 21 21 22 22 23 23 20 21 20 18 13 7 4 1 2 4 7 17 23 12 9 7 3 3 1 2 2 3 1 3 1 4 8 6 6 5 6 8 15 19 20 20 18 17
20 20 21 21 23 24 23 21 22 22 15 7 5 2 0 1 2 12 19 14 12 6 4 1 1 4 8 5 2 1 2 2 5 2 4 8 5 7 8 17 20 21 18 17 17
21 22 22 22 23 23 21 22 19 8 2 6 7 3 4 2 5 14 15 7 7 5 4 5 4 4 3 4 1 2 1 3 2 9 3 5 2 8 15 17 18 19 16 16 17
21 23 24 22 22 22 21 14 4 6 8 9 4 1 2 1 4 10 13 4 8 4 4 7 6 3 3 3 1 1 7 7 4 11 7 7 2 4 16 18 17 17 17 15 15
24 24 24 22 21 21 13 5 8 7 5 4 2 2 1 1 4 7 11 5 3 8 4 1 0 2 1 4 5 11 8 5 9 6 10 10 6 7 15 18 18 17 17 16 16
25 25 24 20 17 18 4 1 2 2 1 3 1 2 2 3 4 3 7 6 2 2 3 3 3 3 6 4 9 8 10 9 8 5 9 14 10 12 15 14 16 17 18 17 17
26 25 23 18 16 5 4 2 4 1 4 3 5 6 6 2 2 4 13 7 4 3 5 3 5 4 4 7 6 6 6 3 1 1 10 5 14 12 17 19 21 19 18 19 19
25 23 20 14 6 3 2 7 3 2 2 3 3 3 2 7 3 9 13 4 4 4 2 4 0 0 3 6 5 1 5 5 2 6 3 2 5 13 14 13 17 17 18 19 20
24 21 16 9 3 3 3 3 12 10 1 1 1 1 4 3 2 3 11 5 2 7 3 4 0 6 6 5 2 4 3 3 6 5 3 3 2 4 12 18 18 19 18 19 20
21 16 11 3 2 2 2 9 4 3 3 1 3 2 2 3 3 3 2 2 5 4 4 3 2 3 3 4 4 3 6 5 3 2 2 2 4 3 6 14 19 22 22 21 20
17 12 6 2 1 1 6 3 4 2 4 3 4 4 5 1 2 3 3 5 3 3 1 7 1 4 3 3 5 1 1 4 3 2 3 2 3 2 5 8 16 19 22 22 18
11 7 2 4 1 5 7 3 2 3 2 2 3 4 7 3 2 3 7 6 3 3 5 3 6 3 4 5 3 2 2 3 1 2 2 1 3 6 5 9 10 20 23 23 19
7 9 8 3 3 7 1 1 5 3 3 1 3 6 3 1 3 3 5 7 2 2 1 2 3 4 5 4 1 3 3 3 2 2 2 2 3 1 3 6 9 12 19 19 20
7 7 5 10 3 1 1 4 3 3 4 2 2 4 3 2 2 2 4 0 2 8 5 3 2 2 2 1 2 4 4 3 4 1 3 3 3 4 0 5 5 8 14 19 21
3 3 6 7 6 1 2 4 1 3 5 0 4 3 4 5 3 3 1 3 5 3 4 3 3 0 1 2 7 2 6 2 1 0 1 1 3 3 9 10 6 5 12 15 18
2 2 9 10 4 2 4 4 4 4 3 5 3 4 5 3 3 2 4 2 4 2 5 5 3 1 1 6 2 2 2 5 3 2 1 2 3 8 6 8 12 7 6 11 16
2 3 12 12 3 2 3 4 6 8 6 7 5 6 4 6 5 3 4 3 10 2 5 3 1 2 4 2 2 2 3 1 2 2 2 2 3 7 10 6 11 9 7 5 10
2 1 6 4 4 3 2 3 7 12 9 7 6 7 4 4 3 4 3 3 8 6 1 3 1 5 4 3 2 2 3 3 4 1 2 3 3 3 15 12 11 8 8 5 6
1 1 3 4 2 2 3 6 3 6 6 4 4 3 2 5 6 4 6 2 6 7 5 1 2 3 5 2 3 3 1 2 1 2 4 5 11 12 18 16 15 13 8 5 3
5 2 2 3 5 5 2 3 5 5 6 9 4 8 3 3 2 4 4 5 2 9 3 2 2 1 2 2 2 2 3 4 1 2 4 4 7 11 13 13 13 12 11 9 8
3 2 2 2 2 2 5 4 6 4 5 3 4 6 3 3 2 3 4 2 3 6 6 4 1 0 3 3 3 1 1 2 2 3 5 5 7 6 8 9 13 16 14 15 16
4 1 2 3 2 1 2 2 4 4 1 4 3 2 1 1 7 10 9 10 5 5 4 4 3 3 4 1 1 5 4 2 2 3 2 2 2 6 10 14 13 13 14 16 16
Wind_Direction
350 350 349 348 347 345 343 338 339 337 338 338 338 336 332 329 331 295 243 220 167 160 152 138 148 157 165 126 171 147 88 88 131 157 137 152 126 138 104 135 85 88 140 141 151
346 345 344 342 341 341 339 335 334 333 334 335 334 332 331 331 335 238 242 198 164 160 153 155 153 165 136 112 147 78 103 195 173 160 152 154 135 139 136 131 90 93 106 137 153
341 340 340 338 337 336 333 332 328 329 330 330 329 329 330 338 234 258 202 168 168 162 156 153 143 219 49 73 38 116 150 121 161 134 105 157 138 127 150 145 153 146 144 152 159
338 337 336 335 333 330 331 328 325 324 324 323 323 325 330 344 157 308 193 171 161 158 145 159 190 341 26 34 52 40 70 112 103 165 121 153 141 140 163 159 163 159 155 158 170
336 334 332 331 329 327 328 325 322 318 316 315 313 322 355 251 277 318 160 162 158 156 157 157 178 27 31 346 192 224 183 165 144 125 105 145 136 130 156 132 143 152 160 170 176
336 333 330 329 328 326 326 323 318 312 306 300 288 308 11 238 338 171 161 160 171 163 139 143 35 314 30 308 267 331 224 202 184 149 133 158 148 153 184 144 146 159 172 173 181
339 336 331 329 326 326 324 323 315 307 296 262 218 144 168 204 10 165 163 172 177 177 127 192 346 338 328 316 237 211 285 229 211 181 116 142 169 204 148 163 161 170 175 179 185
338 333 330 330 325 326 324 322 316 314 298 171 158 138 250 356 125 164 167 159 181 187 105 349 329 263 248 309 300 259 218 333 129 166 147 169 209 176 165 163 170 175 180 183 190
336 333 330 330 327 327 331 328 18 73 102 126 107 201 245 161 197 185 176 127 156 174 236 292 315 332 275 319 334 348 328 307 304 189 149 181 255 164 178 173 173 179 184 187 199
334 330 329 329 329 329 342 102 91 87 99 88 90 246 193 182 162 169 182 130 123 145 138 170 231 297 234 324 336 309 314 301 284 187 196 191 200 166 184 179 179 181 190 192 199
330 328 326 326 329 327 11 168 261 179 187 241 120 292 320 335 174 169 166 172 280 167 130 143 209 246 308 285 285 288 287 305 280 229 185 211 214 189 188 190 184 188 191 198 205
327 325 325 327 330 335 53 93 96 21 306 233 257 273 267 270 137 118 152 165 186 180 131 166 244 243 290 274 270 277 288 20 139 271 209 221 227 209 190 200 193 189 196 201 211
328 325 323 330 339 84 84 130 358 176 257 297 206 220 211 179 186 171 177 154 164 167 172 234 65 201 271 284 310 260 345 5 33 133 226 211 237 201 208 207 205 205 203 202 208
328 326 325 345 114 10 124 163 319 177 328 110 178 206 155 210 149 148 185 167 121 205 171 275 80 231 235 281 264 307 309 329 134 142 327 251 313 197 203 209 209 203 203 206 207
332 327 333 348 272 180 135 329 120 173 104 99 110 119 106 202 121 110 171 128 184 152 200 222 218 199 263 258 201 310 25 18 102 112 288 170 260 122 182 212 214 209 206 205 206
335 329 344 50 206 226 326 7 161 249 85 108 120 154 150 24 77 96 129 70 63 133 341 259 291 256 240 249 230 67 140 59 74 12 254 36 293 242 197 212 216 212 212 207 201
350 1 98 148 102 337 334 166 244 39 330 57 115 154 170 167 150 137 168 175 215 188 241 281 241 250 214 262 129 178 228 321 240 234 310 50 262 280 259 239 222 203 210 207 202
43 59 78 48 316 357 8 170 63 25 22 33 91 113 118 55 53 60 133 196 161 93 17 303 203 206 157 242 332 181 269 241 283 203 335 155 255 54 252 293 257 220 210 201 209
82 72 46 356 5 14 181 68 32 360 325 11 120 93 93 84 112 121 71 359 277 213 226 221 233 283 215 238 319 136 186 49 115 96 262 349 283 274 145 23 73 177 193 195 201
116 99 21 6 6 341 91 92 33 273 320 88 77 23 66 36 122 104 119 34 349 235 228 199 251 33 79 128 64 268 128 161 90 312 332 31 291 325 25 24 24 166 193 199 206
59 69 358 353 341 61 59 29 317 330 343 38 60 67 65 37 50 75 21 93 359 340 210 184 242 150 207 19 353 151 133 67 109 349 345 332 311 8 356 18 357 347 234 210 202
48 52 350 343 56 31 35 337 333 347 12 58 78 68 56 36 42 95 73 17 353 277 161 186 241 66 100 73 47 33 51 356 354 122 64 335 274 40 31 17 6 4 358 238 233
60 330 344 354 74 46 351 26 36 24 25 21 48 41 45 54 88 39 359 360 1 29 237 154 224 131 167 195 153 54 47 79 92 95 178 261 289 50 18 5 359 348 333 314 230
62 47 17 51 33 49 28 17 31 25 51 29 42 56 70 47 38 30 6 354 330 20 40 134 104 274 209 105 104 159 144 129 300 288 147 246 295 330 359 348 343 349 335 320 221
17 65 0 21 41 50 63 14 33 21 16 25 75 43 37 51 24 15 355 325 54 352 50 26 79 1 69 82 150 140 150 157 149 84 273 15 289 332 349 345 343 349 11 54 45
52 2 32 58 326 37 18 30 24 7 0 33 47 351 22 88 43 314 346 325 350 349 11 3 74 16 136 63 48 210 157 122 122 154 253 284 289 356 6 36 27 28 34 46 51
26 60 297 7 18 14 41 20 20 331 123 67 9 338 203 48 305 284 269 277 292 323 324 311 186 168 200 39 354 250 220 216 142 219 279 296 348 5 47 32 16 2 31 33 30